BAW23 KOKC-EGLL

Flight info

Callsign BAW23
Flight time N/A
Altitude 35000
Route TRUPR3 GTYER DCT HLV DCT OBK DCT APN DCT YVO/N0487F370 J545 MT DCT OMTOL DCT DENSO DCT HOIST/M085F370 DCT 56N050W 57N040W 57N030W 56N020W/N0490F370 54N010W DCT DEXEN DCT FITBO
Aircraft A35K/H-SDE2E3GHIJ3J4J5LM1ORWXY/LB1D1

Departure

Time 2026-04-08 05:10
Airport OKC Will Rogers World Airport (KOKC)

Arrival

Time N/A
Airport London Heathrow Airport (EGLL)
Time Latitude Longitude Altitude Speed Heading
2026-04-08 05:00 35.39912 -97.59147 1298 ft 0 kts 360°
2026-04-08 05:00 35.39918 -97.59147 1298 ft 2 kts 359°
2026-04-08 05:00 35.39935 -97.59148 1298 ft 3 kts 358°
2026-04-08 05:01 35.39962 -97.59148 1298 ft 5 kts
2026-04-08 05:01 35.40002 -97.59147 1298 ft 7 kts
2026-04-08 05:01 35.40061 -97.59147 1298 ft 10 kts
2026-04-08 05:01 35.40139 -97.59148 1298 ft 12 kts 359°
2026-04-08 05:02 35.40232 -97.59148 1298 ft 14 kts
2026-04-08 05:02 35.40337 -97.59147 1298 ft 16 kts 360°
2026-04-08 05:02 35.40450 -97.59147 1298 ft 17 kts 359°
2026-04-08 05:02 35.40567 -97.59149 1298 ft 17 kts 360°
2026-04-08 05:03 35.40686 -97.59149 1298 ft 9 kts
2026-04-08 05:03 35.40693 -97.59149 1298 ft 1 kts
2026-04-08 05:03 35.40707 -97.59149 1298 ft 3 kts
2026-04-08 05:03 35.40727 -97.59149 1298 ft 0 kts
2026-04-08 05:04 35.40720 -97.59149 1298 ft 2 kts 179°
2026-04-08 05:04 35.40689 -97.59148 1298 ft 7 kts 179°
2026-04-08 05:04 35.40627 -97.59148 1298 ft 11 kts 180°
2026-04-08 05:04 35.40540 -97.59143 1298 ft 13 kts 163°
2026-04-08 05:05 35.40506 -97.59051 1298 ft 12 kts 91°
2026-04-08 05:05 35.40505 -97.59043 1298 ft 0 kts 91°
2026-04-08 05:06 35.40505 -97.59038 1298 ft 1 kts 91°
2026-04-08 05:06 35.40505 -97.59021 1298 ft 3 kts 91°
2026-04-08 05:06 35.40504 -97.59002 1298 ft 0 kts 92°
2026-04-08 05:08 35.40504 -97.58994 1298 ft 2 kts 92°
2026-04-08 05:08 35.40504 -97.58979 1299 ft 2 kts 91°
2026-04-08 05:08 35.40503 -97.58955 1299 ft 4 kts 92°
2026-04-08 05:08 35.40492 -97.58923 1299 ft 5 kts 127°
2026-04-08 05:09 35.40448 -97.58899 1299 ft 9 kts 168°
2026-04-08 05:09 35.40373 -97.58893 1299 ft 13 kts 181°
2026-04-08 05:09 35.40192 -97.58894 1299 ft 52 kts 179°
2026-04-08 05:09 35.39635 -97.58894 1298 ft 106 kts 180°
2026-04-08 05:10 35.38743 -97.58893 1300 ft 150 kts 179°
2026-04-08 05:10 35.37665 -97.58898 1771 ft 148 kts 180°
2026-04-08 05:10 35.36690 -97.59144 2368 ft 138 kts 196°
2026-04-08 05:10 35.35732 -97.59103 2658 ft 149 kts 150°
2026-04-08 05:11 35.35159 -97.57976 2811 ft 177 kts 102°
2026-04-08 05:11 35.35553 -97.56436 2962 ft 211 kts 56°
2026-04-08 05:11 35.36872 -97.55465 3152 ft 238 kts 14°
2026-04-08 05:11 35.38560 -97.55201 3450 ft 250 kts 11°
2026-04-08 05:12 35.40125 -97.54242 3631 ft 261 kts 49°
2026-04-08 05:12 35.41065 -97.52350 4035 ft 262 kts 73°
2026-04-08 05:12 35.41774 -97.50265 4611 ft 267 kts 70°
2026-04-08 05:12 35.42570 -97.48222 5218 ft 272 kts 68°
2026-04-08 05:13 35.43453 -97.46138 5786 ft 277 kts 66°
2026-04-08 05:13 35.44376 -97.44041 6362 ft 281 kts 65°
2026-04-08 05:13 35.45321 -97.41933 6930 ft 285 kts 64°
2026-04-08 05:13 35.46288 -97.39800 7533 ft 286 kts 64°
2026-04-08 05:14 35.47254 -97.37659 8143 ft 288 kts 63°
2026-04-08 05:14 35.48243 -97.35493 8768 ft 290 kts 63°
2026-04-08 05:14 35.49232 -97.33335 9404 ft 291 kts 62°
2026-04-08 05:14 35.50230 -97.31155 10076 ft 293 kts 62°
2026-04-08 05:15 35.51233 -97.28959 10419 ft 305 kts 62°
2026-04-08 05:15 35.52299 -97.26624 10624 ft 321 kts 62°
2026-04-08 05:15 35.53415 -97.24179 10866 ft 335 kts 62°
2026-04-08 05:15 35.54578 -97.21629 11102 ft 349 kts 62°
2026-04-08 05:16 35.55788 -97.18974 11326 ft 363 kts 62°
2026-04-08 05:16 35.57039 -97.16227 11543 ft 375 kts 62°
2026-04-08 05:16 35.58329 -97.13392 11812 ft 385 kts 61°
2026-04-08 05:16 35.59643 -97.10500 12242 ft 389 kts 61°
2026-04-08 05:17 35.60966 -97.07587 12715 ft 392 kts 61°
2026-04-08 05:17 35.62300 -97.04645 13224 ft 395 kts 61°
2026-04-08 05:17 35.63639 -97.01692 13715 ft 397 kts 61°
2026-04-08 05:17 35.64714 -96.99317 14118 ft 398 kts 61°
2026-04-08 05:18 35.64729 -96.99286 14125 ft 398 kts 61°
2026-04-08 05:18 35.65748 -96.97032 14414 ft 401 kts 61°
2026-04-08 05:18 35.66405 -96.95581 14591 ft 404 kts 61°
2026-04-08 05:18 35.67774 -96.92600 14964 ft 407 kts 60°
2026-04-08 05:19 35.69203 -96.89528 15392 ft 410 kts 60°
2026-04-08 05:19 35.70607 -96.86519 15809 ft 413 kts 60°
2026-04-08 05:19 35.72070 -96.83407 16230 ft 416 kts 60°
2026-04-08 05:19 35.73588 -96.80426 16607 ft 419 kts 53°
2026-04-08 05:20 35.75495 -96.77695 17009 ft 422 kts 46°
2026-04-08 05:20 35.77522 -96.75050 17411 ft 425 kts 46°
2026-04-08 05:20 35.79564 -96.72390 17791 ft 429 kts 46°
2026-04-08 05:20 35.81614 -96.69708 18181 ft 432 kts 46°
2026-04-08 05:21 35.83682 -96.66993 18552 ft 435 kts 46°
2026-04-08 05:21 35.85751 -96.64272 18899 ft 437 kts 46°
2026-04-08 05:21 35.87839 -96.61521 19262 ft 439 kts 46°
2026-04-08 05:21 35.89937 -96.58753 19609 ft 442 kts 46°
2026-04-08 05:22 35.92041 -96.55983 19960 ft 444 kts 46°
2026-04-08 05:22 35.94169 -96.53210 20306 ft 446 kts 45°
2026-04-08 05:22 35.96310 -96.50433 20659 ft 448 kts 45°
2026-04-08 05:22 35.98464 -96.47643 21000 ft 450 kts 45°
2026-04-08 05:23 36.00633 -96.44830 21360 ft 452 kts 45°
2026-04-08 05:23 36.02807 -96.42006 21728 ft 454 kts 45°
2026-04-08 05:23 36.04974 -96.39185 22086 ft 457 kts 45°
2026-04-08 05:23 36.07153 -96.36345 22440 ft 459 kts 45°
2026-04-08 05:24 36.09352 -96.33473 22806 ft 461 kts 45°
2026-04-08 05:24 36.11563 -96.30583 23168 ft 463 kts 45°
2026-04-08 05:24 36.13784 -96.27678 23519 ft 465 kts 45°
2026-04-08 05:24 36.16010 -96.24764 23859 ft 468 kts 45°
2026-04-08 05:25 36.18255 -96.21822 24138 ft 470 kts 45°
2026-04-08 05:25 36.20507 -96.18870 24433 ft 472 kts 45°
2026-04-08 05:25 36.22769 -96.15901 24728 ft 474 kts 45°
2026-04-08 05:25 36.25041 -96.12915 25017 ft 476 kts 45°
2026-04-08 05:26 36.27320 -96.09919 25321 ft 479 kts 45°
2026-04-08 05:26 36.29609 -96.06907 25602 ft 481 kts 45°
2026-04-08 05:26 36.31903 -96.03884 25900 ft 483 kts 45°
2026-04-08 05:26 36.34213 -96.00837 26200 ft 485 kts 45°
2026-04-08 05:27 36.36516 -95.97798 26503 ft 487 kts 45°
2026-04-08 05:27 36.38846 -95.94719 26824 ft 489 kts 45°
2026-04-08 05:27 36.41183 -95.91628 27133 ft 491 kts 44°
2026-04-08 05:27 36.43493 -95.88571 27428 ft 493 kts 44°
2026-04-08 05:28 36.45846 -95.85455 27722 ft 496 kts 44°
2026-04-08 05:28 36.48212 -95.82318 28020 ft 498 kts 44°
2026-04-08 05:28 36.50589 -95.79163 28313 ft 501 kts 44°
2026-04-08 05:28 36.52969 -95.76001 28616 ft 503 kts 44°
2026-04-08 05:29 36.55372 -95.72813 28908 ft 505 kts 44°
2026-04-08 05:29 36.57774 -95.69622 29201 ft 507 kts 44°
2026-04-08 05:29 36.60190 -95.66402 29463 ft 509 kts 44°
2026-04-08 05:29 36.62606 -95.63175 29750 ft 510 kts 44°
2026-04-08 05:30 36.65021 -95.59946 30191 ft 509 kts 44°
2026-04-08 05:30 36.67436 -95.56713 30562 ft 508 kts 44°
2026-04-08 05:30 36.69816 -95.53526 30888 ft 508 kts 44°
2026-04-08 05:30 36.72221 -95.50304 31226 ft 508 kts 44°
2026-04-08 05:31 36.74628 -95.47076 31584 ft 507 kts 44°
2026-04-08 05:31 36.77031 -95.43853 31901 ft 507 kts 44°
2026-04-08 05:31 36.79432 -95.40628 32237 ft 506 kts 44°
2026-04-08 05:31 36.81824 -95.37412 32574 ft 506 kts 44°
2026-04-08 05:32 36.84220 -95.34188 32920 ft 505 kts 44°
2026-04-08 05:32 36.86611 -95.30967 33246 ft 505 kts 44°
2026-04-08 05:32 36.88991 -95.27758 33567 ft 504 kts 44°
2026-04-08 05:32 36.91372 -95.24544 33905 ft 504 kts 44°
2026-04-08 05:33 36.93751 -95.21330 34214 ft 503 kts 44°
2026-04-08 05:33 36.96124 -95.18121 34493 ft 503 kts 44°
2026-04-08 05:33 36.98502 -95.14901 34763 ft 502 kts 44°
2026-04-08 05:33 37.00844 -95.11728 35011 ft 502 kts 44°
2026-04-08 05:34 37.03222 -95.08504 35159 ft 505 kts 44°
2026-04-08 05:34 37.08025 -95.01984 35175 ft 510 kts 44°
2026-04-08 05:35 37.12830 -94.95442 35187 ft 509 kts 44°
2026-04-08 05:35 37.17621 -94.88905 35173 ft 510 kts 44°
2026-04-08 05:36 37.22419 -94.82348 35172 ft 510 kts 44°
2026-04-08 05:36 37.27221 -94.75771 35175 ft 510 kts 44°
2026-04-08 05:37 37.31985 -94.69235 35178 ft 511 kts 44°
2026-04-08 05:37 37.36785 -94.62635 35175 ft 511 kts 44°
2026-04-08 05:38 37.41580 -94.56026 35177 ft 512 kts 44°
2026-04-08 05:38 37.46376 -94.49404 35174 ft 512 kts 44°
2026-04-08 05:39 37.51172 -94.42768 35176 ft 512 kts 44°
2026-04-08 05:39 37.55965 -94.36123 35174 ft 512 kts 44°
2026-04-08 05:40 37.60752 -94.29474 35177 ft 512 kts 44°
2026-04-08 05:40 37.65540 -94.22807 35175 ft 513 kts 44°
2026-04-08 05:41 37.70331 -94.16123 35179 ft 513 kts 44°
2026-04-08 05:41 37.75115 -94.09435 35176 ft 513 kts 44°
2026-04-08 05:42 37.79865 -94.02782 35172 ft 513 kts 44°
2026-04-08 05:42 37.84646 -93.96071 35183 ft 514 kts 44°
2026-04-08 05:43 37.89428 -93.89344 35176 ft 514 kts 44°
2026-04-08 05:43 37.94200 -93.82616 35180 ft 514 kts 44°
2026-04-08 05:44 37.98983 -93.75862 35181 ft 515 kts 45°
2026-04-08 05:44 38.03762 -93.69096 35189 ft 516 kts 45°
2026-04-08 05:45 38.08542 -93.62311 35185 ft 515 kts 45°
2026-04-08 05:45 38.13317 -93.55523 35185 ft 515 kts 45°
2026-04-08 05:46 38.18092 -93.48720 35207 ft 515 kts 45°
2026-04-08 05:46 38.22863 -93.41909 35212 ft 515 kts 45°
2026-04-08 05:47 38.27625 -93.35095 35216 ft 515 kts 45°
2026-04-08 05:47 38.32379 -93.28279 35211 ft 515 kts 45°
2026-04-08 05:48 38.37135 -93.21445 35213 ft 515 kts 45°
2026-04-08 05:48 38.41891 -93.14598 35210 ft 515 kts 45°
2026-04-08 05:49 38.46611 -93.07787 35216 ft 515 kts 45°
2026-04-08 05:49 38.51359 -93.00920 35218 ft 515 kts 45°
2026-04-08 05:50 38.56094 -92.94056 35218 ft 515 kts 45°
2026-04-08 05:50 38.60822 -92.87190 35221 ft 515 kts 45°
2026-04-08 05:51 38.65551 -92.80305 35222 ft 515 kts 45°
2026-04-08 05:51 38.69472 -92.74587 35226 ft 515 kts 45°
2026-04-08 05:52 38.74195 -92.67684 35225 ft 515 kts 45°
2026-04-08 05:52 38.78912 -92.60775 35226 ft 515 kts 45°
2026-04-08 05:53 38.83621 -92.53863 35224 ft 514 kts 45°
2026-04-08 05:53 38.88316 -92.46955 35227 ft 514 kts 45°
2026-04-08 05:54 38.93020 -92.40021 35247 ft 514 kts 45°
2026-04-08 05:54 38.97713 -92.33087 35248 ft 514 kts 45°
2026-04-08 05:55 39.02407 -92.26137 35248 ft 514 kts 45°
2026-04-08 05:55 39.07094 -92.19182 35248 ft 514 kts 45°
2026-04-08 05:56 39.11779 -92.12213 35255 ft 514 kts 45°
2026-04-08 05:56 39.16744 -92.05618 35256 ft 511 kts 39°
2026-04-08 05:57 39.24483 -91.96252 35258 ft 511 kts 40°
2026-04-08 05:57 39.29602 -91.89893 35255 ft 511 kts 40°
2026-04-08 05:58 39.34684 -91.83474 35254 ft 511 kts 40°
2026-04-08 05:58 39.39762 -91.77027 35257 ft 511 kts 40°
2026-04-08 05:59 39.44831 -91.70583 35261 ft 511 kts 40°
2026-04-08 05:59 39.49894 -91.64140 35276 ft 511 kts 41°
2026-04-08 06:00 39.54949 -91.57692 35281 ft 510 kts 41°
2026-04-08 06:00 39.60012 -91.51222 35281 ft 510 kts 41°
2026-04-08 06:01 39.65027 -91.44798 35274 ft 510 kts 41°
2026-04-08 06:01 39.70054 -91.38345 35277 ft 510 kts 41°
2026-04-08 06:02 39.75083 -91.31875 35277 ft 509 kts 41°
2026-04-08 06:02 39.80112 -91.25391 35270 ft 509 kts 41°
2026-04-08 06:03 39.85131 -91.18906 35269 ft 508 kts 41°
2026-04-08 06:03 39.90136 -91.12425 35268 ft 507 kts 41°
2026-04-08 06:04 39.95138 -91.05934 35268 ft 507 kts 41°
2026-04-08 06:04 40.00128 -90.99443 35273 ft 507 kts 41°
2026-04-08 06:05 40.05106 -90.92954 35282 ft 506 kts 41°
2026-04-08 06:05 40.10077 -90.86461 35291 ft 505 kts 41°
2026-04-08 06:06 40.15050 -90.79951 35301 ft 505 kts 41°
2026-04-08 06:06 40.20003 -90.73452 35304 ft 504 kts 41°
2026-04-08 06:07 40.24951 -90.66947 35311 ft 504 kts 41°
2026-04-08 06:07 40.29890 -90.60437 35315 ft 504 kts 41°
2026-04-08 06:08 40.34825 -90.53919 35317 ft 503 kts 41°
2026-04-08 06:08 40.39743 -90.47408 35319 ft 503 kts 41°
2026-04-08 06:09 40.44662 -90.40882 35321 ft 502 kts 41°
2026-04-08 06:09 40.49569 -90.34357 35322 ft 502 kts 41°
2026-04-08 06:10 40.54476 -90.27820 35324 ft 502 kts 41°
2026-04-08 06:10 40.59341 -90.21323 35329 ft 502 kts 41°
2026-04-08 06:11 40.64235 -90.14773 35336 ft 502 kts 41°
2026-04-08 06:11 40.69134 -90.08202 35337 ft 502 kts 41°
2026-04-08 06:12 40.74026 -90.01626 35337 ft 503 kts 41°
2026-04-08 06:12 40.78922 -89.95029 35338 ft 503 kts 41°
2026-04-08 06:13 40.83818 -89.88419 35339 ft 504 kts 41°
2026-04-08 06:13 40.88711 -89.81798 35327 ft 504 kts 41°
2026-04-08 06:14 40.93605 -89.75158 35351 ft 505 kts 41°
2026-04-08 06:14 40.98517 -89.68481 35346 ft 505 kts 41°
2026-04-08 06:15 41.03411 -89.61812 35359 ft 506 kts 41°
2026-04-08 06:15 41.08309 -89.55121 35359 ft 506 kts 41°
2026-04-08 06:16 41.13212 -89.48410 35367 ft 507 kts 41°
2026-04-08 06:16 41.18087 -89.41722 35360 ft 507 kts 41°
2026-04-08 06:17 41.22985 -89.34988 35359 ft 508 kts 41°
2026-04-08 06:17 41.27894 -89.28222 35353 ft 508 kts 41°
2026-04-08 06:18 41.32799 -89.21445 35349 ft 509 kts 41°
2026-04-08 06:18 41.37702 -89.14656 35349 ft 509 kts 41°
2026-04-08 06:19 41.42612 -89.07842 35349 ft 510 kts 41°
2026-04-08 06:19 41.47517 -89.01019 35360 ft 510 kts 41°
2026-04-08 06:20 41.52423 -88.94176 35371 ft 510 kts 41°
2026-04-08 06:20 41.57330 -88.87318 35383 ft 510 kts 41°
2026-04-08 06:21 41.62228 -88.80456 35386 ft 510 kts 41°
2026-04-08 06:21 41.67123 -88.73582 35383 ft 510 kts 41°
2026-04-08 06:22 41.72014 -88.66697 35378 ft 510 kts 41°
2026-04-08 06:22 41.76907 -88.59794 35368 ft 511 kts 41°
2026-04-08 06:23 41.81791 -88.52886 35370 ft 511 kts 41°
2026-04-08 06:23 41.86674 -88.45964 35370 ft 511 kts 41°
2026-04-08 06:24 41.91557 -88.39025 35370 ft 511 kts 41°
2026-04-08 06:24 41.96432 -88.32080 35368 ft 511 kts 41°
2026-04-08 06:25 42.01301 -88.25128 35377 ft 511 kts 41°
2026-04-08 06:25 42.06137 -88.18207 35382 ft 511 kts 41°
2026-04-08 06:26 42.11001 -88.11228 35403 ft 511 kts 41°
2026-04-08 06:26 42.15863 -88.04238 35392 ft 511 kts 41°
2026-04-08 06:27 42.20721 -87.97236 35401 ft 511 kts 41°
2026-04-08 06:27 42.25588 -87.90233 35398 ft 511 kts 41°
2026-04-08 06:28 42.30472 -87.83272 35388 ft 511 kts 41°
2026-04-08 06:28 42.35361 -87.76295 35380 ft 511 kts 41°
2026-04-08 06:29 42.40240 -87.69301 35389 ft 511 kts 41°
2026-04-08 06:29 42.45113 -87.62292 35397 ft 511 kts 41°
2026-04-08 06:30 42.49985 -87.55267 35409 ft 511 kts 41°
2026-04-08 06:30 42.54847 -87.48238 35421 ft 511 kts 41°
2026-04-08 06:31 42.59710 -87.41193 35430 ft 511 kts 41°
2026-04-08 06:31 42.64536 -87.34184 35433 ft 511 kts 41°
2026-04-08 06:32 42.69391 -87.27115 35436 ft 511 kts 41°
2026-04-08 06:32 42.74245 -87.20031 35430 ft 511 kts 41°
2026-04-08 06:33 42.79090 -87.12941 35439 ft 511 kts 41°
2026-04-08 06:33 42.83927 -87.05847 35441 ft 511 kts 41°
2026-04-08 06:34 42.88759 -86.98741 35432 ft 511 kts 41°
2026-04-08 06:34 42.93590 -86.91621 35429 ft 511 kts 41°
2026-04-08 06:35 42.98416 -86.84489 35436 ft 511 kts 41°
2026-04-08 06:35 43.03234 -86.77351 35440 ft 511 kts 41°
2026-04-08 06:36 43.08041 -86.70212 35443 ft 511 kts 41°
2026-04-08 06:36 43.12820 -86.63098 35444 ft 510 kts 41°
2026-04-08 06:37 43.17618 -86.55938 35444 ft 510 kts 41°
2026-04-08 06:37 43.22413 -86.48763 35447 ft 510 kts 41°
2026-04-08 06:38 43.27204 -86.41576 35446 ft 510 kts 41°
2026-04-08 06:38 43.31182 -86.35595 35447 ft 510 kts 41°
2026-04-08 06:39 43.35963 -86.28390 35450 ft 510 kts 41°
2026-04-08 06:39 43.40734 -86.21183 35442 ft 510 kts 41°
2026-04-08 06:40 43.45501 -86.13963 35434 ft 510 kts 41°
2026-04-08 06:40 43.50268 -86.06725 35433 ft 510 kts 41°
2026-04-08 06:41 43.55021 -85.99491 35435 ft 509 kts 41°
2026-04-08 06:41 43.59774 -85.92236 35441 ft 509 kts 41°
2026-04-08 06:42 43.64522 -85.84973 35449 ft 509 kts 42°
2026-04-08 06:42 43.69261 -85.77702 35442 ft 509 kts 42°
2026-04-08 06:43 43.73993 -85.70426 35440 ft 509 kts 42°
2026-04-08 06:43 43.78727 -85.63127 35438 ft 509 kts 42°
2026-04-08 06:44 43.83414 -85.55883 35438 ft 509 kts 42°
2026-04-08 06:44 43.88130 -85.48573 35444 ft 508 kts 42°
2026-04-08 06:45 43.92836 -85.41261 35452 ft 508 kts 42°
2026-04-08 06:45 43.97537 -85.33938 35460 ft 508 kts 42°
2026-04-08 06:46 44.02235 -85.26601 35459 ft 508 kts 42°
2026-04-08 06:46 44.06917 -85.19270 35448 ft 507 kts 42°
2026-04-08 06:47 44.11597 -85.11924 35455 ft 507 kts 42°
2026-04-08 06:47 44.16267 -85.04574 35461 ft 507 kts 42°
2026-04-08 06:48 44.20931 -84.97214 35463 ft 507 kts 42°
2026-04-08 06:48 44.25595 -84.89835 35460 ft 507 kts 42°
2026-04-08 06:49 44.30248 -84.82455 35446 ft 507 kts 42°
2026-04-08 06:49 44.34897 -84.75062 35445 ft 507 kts 42°
2026-04-08 06:50 44.39541 -84.67657 35443 ft 506 kts 42°
2026-04-08 06:50 44.44180 -84.60240 35447 ft 506 kts 42°
2026-04-08 06:51 44.48816 -84.52810 35449 ft 506 kts 42°
2026-04-08 06:51 44.53445 -84.45372 35469 ft 506 kts 42°
2026-04-08 06:52 44.58064 -84.37929 35468 ft 506 kts 42°
2026-04-08 06:52 44.62689 -84.30456 35466 ft 506 kts 42°
2026-04-08 06:53 44.67299 -84.22988 35491 ft 506 kts 42°
2026-04-08 06:53 44.71872 -84.15562 35496 ft 506 kts 42°
2026-04-08 06:54 44.76472 -84.08071 35500 ft 506 kts 42°
2026-04-08 06:54 44.81063 -84.00574 35499 ft 505 kts 42°
2026-04-08 06:55 44.85647 -83.93069 35499 ft 505 kts 43°
2026-04-08 06:55 44.90222 -83.85559 35494 ft 505 kts 43°
2026-04-08 06:56 44.94792 -83.78038 35487 ft 504 kts 43°
2026-04-08 06:56 44.99351 -83.70513 35484 ft 504 kts 43°
2026-04-08 06:57 45.03903 -83.62983 35480 ft 504 kts 43°
2026-04-08 06:57 45.08446 -83.55446 35479 ft 503 kts 43°
2026-04-08 06:58 45.12969 -83.47883 35480 ft 503 kts 43°
2026-04-08 06:58 45.17465 -83.40296 35486 ft 503 kts 43°
2026-04-08 06:59 45.24208 -83.28890 35494 ft 502 kts 43°
2026-04-08 07:00 45.28695 -83.21286 35501 ft 502 kts 43°
2026-04-08 07:00 45.33176 -83.13672 35506 ft 502 kts 43°
2026-04-08 07:01 45.37654 -83.06043 35506 ft 502 kts 43°
2026-04-08 07:01 45.42124 -82.98405 35507 ft 502 kts 43°
2026-04-08 07:02 45.46588 -82.90757 35503 ft 502 kts 43°
2026-04-08 07:02 45.51050 -82.83091 35511 ft 502 kts 43°
2026-04-08 07:03 45.55506 -82.75417 35506 ft 502 kts 43°
2026-04-08 07:03 45.59955 -82.67732 35500 ft 502 kts 43°
2026-04-08 07:04 45.64402 -82.60028 35496 ft 502 kts 43°
2026-04-08 07:04 45.68813 -82.52367 35490 ft 502 kts 43°
2026-04-08 07:05 45.73243 -82.44651 35493 ft 502 kts 43°
2026-04-08 07:05 45.77671 -82.36918 35491 ft 502 kts 43°
2026-04-08 07:06 45.82094 -82.29172 35495 ft 502 kts 43°
2026-04-08 07:06 45.86507 -82.21421 35504 ft 502 kts 43°
2026-04-08 07:07 45.90916 -82.13656 35511 ft 501 kts 43°
2026-04-08 07:07 45.95319 -82.05880 35516 ft 501 kts 43°
2026-04-08 07:08 45.99710 -81.98105 35522 ft 501 kts 43°
2026-04-08 07:08 46.04092 -81.90322 35528 ft 501 kts 43°
2026-04-08 07:09 46.08471 -81.82523 35528 ft 500 kts 43°
2026-04-08 07:09 46.12839 -81.74723 35527 ft 500 kts 43°
2026-04-08 07:10 46.17197 -81.66916 35524 ft 499 kts 43°
2026-04-08 07:10 46.21548 -81.59104 35525 ft 499 kts 43°
2026-04-08 07:11 46.25892 -81.51283 35523 ft 499 kts 43°
2026-04-08 07:11 46.30224 -81.43459 35524 ft 499 kts 43°
2026-04-08 07:12 46.34555 -81.35617 35523 ft 499 kts 43°
2026-04-08 07:12 46.38880 -81.27763 35523 ft 499 kts 43°
2026-04-08 07:13 46.43172 -81.19946 35517 ft 499 kts 43°
2026-04-08 07:13 46.47518 -81.12007 35500 ft 499 kts 43°
2026-04-08 07:14 46.51801 -81.04162 35479 ft 499 kts 43°
2026-04-08 07:14 46.56104 -80.96259 35462 ft 499 kts 44°
2026-04-08 07:15 46.60400 -80.88343 35449 ft 499 kts 44°
2026-04-08 07:15 46.64704 -80.80392 35451 ft 499 kts 44°
2026-04-08 07:16 46.68996 -80.72441 35451 ft 499 kts 44°
2026-04-08 07:16 46.73280 -80.64482 35464 ft 499 kts 44°
2026-04-08 07:17 46.77560 -80.56505 35478 ft 499 kts 44°
2026-04-08 07:17 46.81835 -80.48515 35489 ft 499 kts 44°
2026-04-08 07:18 46.86103 -80.40518 35506 ft 499 kts 44°
2026-04-08 07:18 46.90372 -80.32496 35501 ft 500 kts 44°
2026-04-08 07:19 46.94634 -80.24464 35502 ft 500 kts 44°
2026-04-08 07:19 46.98890 -80.16416 35497 ft 500 kts 44°
2026-04-08 07:20 47.03121 -80.08392 35485 ft 501 kts 44°
2026-04-08 07:20 47.07373 -80.00307 35489 ft 501 kts 44°
2026-04-08 07:21 47.11625 -79.92198 35487 ft 501 kts 44°
2026-04-08 07:21 47.15869 -79.84080 35484 ft 502 kts 45°
2026-04-08 07:22 47.20120 -79.75923 35490 ft 502 kts 45°
2026-04-08 07:22 47.24359 -79.67764 35480 ft 502 kts 45°
2026-04-08 07:23 47.28599 -79.59581 35478 ft 502 kts 45°
2026-04-08 07:23 47.32830 -79.51391 35478 ft 503 kts 45°
2026-04-08 07:24 47.37058 -79.43181 35479 ft 503 kts 45°
2026-04-08 07:24 47.41284 -79.34952 35478 ft 503 kts 45°
2026-04-08 07:25 47.45502 -79.26713 35475 ft 503 kts 45°
2026-04-08 07:25 47.49716 -79.18458 35474 ft 503 kts 45°
2026-04-08 07:26 47.53212 -79.11590 35474 ft 503 kts 45°
2026-04-08 07:26 47.58093 -79.01970 35474 ft 503 kts 45°
2026-04-08 07:27 47.62288 -78.93677 35480 ft 503 kts 45°
2026-04-08 07:27 47.66477 -78.85371 35467 ft 503 kts 45°
2026-04-08 07:28 47.69984 -78.78395 35470 ft 503 kts 45°
2026-04-08 07:28 47.74137 -78.70115 35473 ft 503 kts 44°
2026-04-08 07:29 47.78307 -78.61777 35466 ft 503 kts 44°
2026-04-08 07:29 47.82478 -78.53408 35466 ft 503 kts 44°
2026-04-08 07:30 47.86637 -78.45037 35468 ft 503 kts 44°
2026-04-08 07:30 47.90797 -78.36640 35456 ft 504 kts 44°
2026-04-08 07:31 47.94954 -78.28222 35457 ft 504 kts 45°
2026-04-08 07:31 47.99101 -78.19801 35435 ft 504 kts 45°
2026-04-08 07:32 48.03250 -78.11351 35424 ft 504 kts 45°
2026-04-08 07:32 48.07394 -78.02883 35407 ft 505 kts 45°
2026-04-08 07:33 48.11532 -77.94400 35394 ft 506 kts 45°
2026-04-08 07:33 48.15674 -77.85879 35452 ft 505 kts 45°
2026-04-08 07:33 48.17737 -77.81627 35746 ft 504 kts 45°
2026-04-08 07:34 48.19816 -77.77426 36039 ft 502 kts 44°
2026-04-08 07:34 48.21953 -77.73283 36279 ft 502 kts 43°
2026-04-08 07:34 48.24116 -77.69165 36483 ft 503 kts 43°
2026-04-08 07:34 48.26287 -77.65041 36689 ft 504 kts 43°
2026-04-08 07:35 48.28452 -77.60905 36895 ft 506 kts 44°
2026-04-08 07:35 48.30622 -77.56729 37090 ft 507 kts 44°
2026-04-08 07:35 48.32788 -77.52534 37293 ft 509 kts 44°
2026-04-08 07:35 48.34952 -77.48326 37431 ft 512 kts 44°
2026-04-08 07:36 48.37141 -77.44057 37441 ft 517 kts 44°
2026-04-08 07:36 48.41522 -77.35479 37439 ft 517 kts 45°
2026-04-08 07:37 48.45900 -77.26873 37438 ft 517 kts 45°
2026-04-08 07:37 48.50240 -77.18325 37429 ft 518 kts 45°
2026-04-08 07:38 48.54614 -77.09687 37428 ft 518 kts 45°
2026-04-08 07:38 48.58984 -77.01031 37425 ft 519 kts 45°
2026-04-08 07:39 48.63349 -76.92355 37423 ft 519 kts 45°
2026-04-08 07:39 48.67718 -76.83644 37416 ft 519 kts 45°
2026-04-08 07:40 48.72079 -76.74920 37421 ft 520 kts 45°
2026-04-08 07:40 48.76442 -76.66165 37416 ft 521 kts 45°
2026-04-08 07:41 48.80800 -76.57389 37418 ft 521 kts 45°
2026-04-08 07:41 48.85154 -76.48593 37412 ft 522 kts 46°
2026-04-08 07:42 48.89515 -76.39755 37409 ft 522 kts 46°
2026-04-08 07:42 48.93867 -76.30907 37405 ft 523 kts 46°
2026-04-08 07:43 48.98213 -76.22041 37406 ft 523 kts 46°
2026-04-08 07:43 49.02560 -76.13145 37407 ft 524 kts 46°
2026-04-08 07:44 49.06878 -76.04277 37402 ft 524 kts 46°
2026-04-08 07:44 49.11214 -75.95340 37389 ft 525 kts 46°
2026-04-08 07:45 49.15550 -75.86373 37403 ft 525 kts 46°
2026-04-08 07:45 49.19883 -75.77383 37397 ft 525 kts 46°
2026-04-08 07:46 49.24213 -75.68371 37400 ft 526 kts 47°
2026-04-08 07:46 49.28535 -75.59346 37399 ft 526 kts 47°
2026-04-08 07:47 49.32856 -75.50290 37393 ft 526 kts 47°
2026-04-08 07:47 49.37167 -75.41225 37394 ft 526 kts 47°
2026-04-08 07:48 49.41475 -75.32137 37394 ft 527 kts 47°
2026-04-08 07:48 49.45779 -75.23025 37392 ft 527 kts 47°
2026-04-08 07:49 49.50076 -75.13897 37400 ft 527 kts 47°
2026-04-08 07:49 49.54371 -75.04743 37386 ft 527 kts 47°
2026-04-08 07:50 49.58657 -74.95575 37376 ft 527 kts 47°
2026-04-08 07:50 49.62905 -74.86458 37352 ft 528 kts 48°
2026-04-08 07:51 49.67179 -74.77253 37324 ft 528 kts 48°
2026-04-08 07:51 49.71448 -74.68026 37295 ft 528 kts 48°
2026-04-08 07:52 49.75713 -74.58777 37286 ft 528 kts 48°
2026-04-08 07:52 49.79968 -74.49518 37286 ft 528 kts 48°
2026-04-08 07:53 49.84370 -74.40445 37294 ft 526 kts 45°
2026-04-08 07:53 49.88938 -74.31596 37320 ft 526 kts 45°
2026-04-08 07:54 49.93486 -74.22706 37343 ft 526 kts 45°
2026-04-08 07:54 49.97997 -74.13747 37366 ft 527 kts 46°
2026-04-08 07:55 50.02488 -74.04749 37379 ft 527 kts 46°
2026-04-08 07:55 50.06975 -73.95725 37376 ft 527 kts 46°
2026-04-08 07:56 50.11458 -73.86685 37374 ft 528 kts 46°
2026-04-08 07:56 50.15941 -73.77616 37366 ft 528 kts 46°
2026-04-08 07:57 50.20420 -73.68526 37370 ft 528 kts 46°
2026-04-08 07:57 50.24890 -73.59422 37368 ft 528 kts 46°
2026-04-08 07:58 50.29327 -73.50353 37368 ft 529 kts 46°
2026-04-08 07:58 50.33781 -73.41215 37369 ft 529 kts 47°
2026-04-08 07:59 50.38270 -73.31975 37368 ft 529 kts 47°
2026-04-08 07:59 50.42688 -73.22848 37367 ft 529 kts 47°
2026-04-08 08:00 50.49352 -73.09027 37363 ft 529 kts 47°
2026-04-08 08:00 50.53785 -72.99792 37362 ft 530 kts 47°
2026-04-08 08:01 50.58213 -72.90531 37363 ft 530 kts 47°
2026-04-08 08:01 50.62639 -72.81242 37360 ft 530 kts 47°
2026-04-08 08:02 50.67055 -72.71942 37361 ft 530 kts 48°
2026-04-08 08:02 50.71465 -72.62620 37344 ft 530 kts 48°
2026-04-08 08:03 50.75874 -72.53269 37358 ft 531 kts 48°
2026-04-08 08:03 50.80269 -72.43914 37356 ft 531 kts 48°
2026-04-08 08:04 50.84659 -72.34536 37354 ft 531 kts 49°
2026-04-08 08:04 50.89052 -72.25118 37351 ft 531 kts 49°
2026-04-08 08:05 50.93431 -72.15694 37344 ft 531 kts 49°
2026-04-08 08:05 50.97809 -72.06239 37340 ft 532 kts 49°
2026-04-08 08:06 51.02180 -71.96767 37334 ft 532 kts 49°
2026-04-08 08:06 51.06550 -71.87261 37332 ft 533 kts 49°
2026-04-08 08:07 51.10803 -71.77702 37326 ft 535 kts 53°
2026-04-08 08:07 51.14624 -71.67493 37323 ft 538 kts 56°
2026-04-08 08:08 51.18362 -71.57189 37324 ft 537 kts 56°
2026-04-08 08:08 51.22172 -71.46929 37323 ft 537 kts 55°
2026-04-08 08:09 51.26014 -71.36714 37331 ft 537 kts 55°
2026-04-08 08:09 51.29861 -71.26476 37329 ft 537 kts 55°
2026-04-08 08:10 51.33692 -71.16231 37330 ft 537 kts 55°
2026-04-08 08:10 51.37507 -71.05976 37330 ft 537 kts 55°
2026-04-08 08:11 51.41321 -70.95682 37330 ft 537 kts 56°
2026-04-08 08:11 51.45119 -70.85389 37331 ft 537 kts 56°
2026-04-08 08:12 51.48915 -70.75062 37331 ft 537 kts 56°
2026-04-08 08:12 51.52701 -70.64717 37325 ft 537 kts 56°
2026-04-08 08:13 51.56476 -70.54361 37322 ft 538 kts 56°
2026-04-08 08:13 51.60247 -70.43973 37324 ft 538 kts 56°
2026-04-08 08:14 51.64010 -70.33566 37315 ft 538 kts 57°
2026-04-08 08:14 51.67759 -70.23152 37314 ft 538 kts 57°
2026-04-08 08:15 51.71499 -70.12725 37309 ft 537 kts 57°
2026-04-08 08:15 51.74600 -70.04046 37307 ft 537 kts 57°
2026-04-08 08:16 51.78926 -69.91889 37303 ft 537 kts 57°
2026-04-08 08:16 51.82628 -69.81438 37305 ft 536 kts 57°
2026-04-08 08:17 51.86329 -69.70946 37300 ft 536 kts 57°
2026-04-08 08:17 51.89417 -69.62155 37302 ft 536 kts 58°
2026-04-08 08:18 51.93068 -69.51725 37296 ft 536 kts 58°
2026-04-08 08:18 51.96743 -69.41182 37296 ft 536 kts 58°
2026-04-08 08:19 52.00401 -69.30645 37297 ft 536 kts 58°
2026-04-08 08:19 52.04053 -69.20082 37292 ft 537 kts 58°
2026-04-08 08:20 52.07699 -69.09490 37296 ft 537 kts 58°
2026-04-08 08:20 52.11333 -68.98886 37289 ft 537 kts 58°
2026-04-08 08:21 52.14957 -68.88268 37288 ft 538 kts 58°
2026-04-08 08:21 52.18591 -68.77575 37286 ft 538 kts 59°
2026-04-08 08:22 52.22201 -68.66906 37284 ft 538 kts 59°
2026-04-08 08:22 52.25809 -68.56200 37277 ft 538 kts 59°
2026-04-08 08:23 52.29343 -68.45665 37272 ft 539 kts 59°
2026-04-08 08:23 52.32937 -68.34908 37271 ft 539 kts 59°
2026-04-08 08:24 52.36518 -68.24141 37252 ft 539 kts 59°
2026-04-08 08:24 52.40094 -68.13343 37255 ft 540 kts 59°
2026-04-08 08:25 52.43663 -68.02518 37253 ft 540 kts 59°
2026-04-08 08:25 52.47223 -67.91674 37247 ft 540 kts 60°
2026-04-08 08:26 52.50779 -67.80792 37244 ft 541 kts 60°
2026-04-08 08:26 52.54326 -67.69892 37239 ft 541 kts 60°
2026-04-08 08:27 52.57854 -67.59001 37234 ft 541 kts 60°
2026-04-08 08:27 52.61388 -67.48041 37234 ft 541 kts 60°
2026-04-08 08:28 52.64906 -67.37084 37230 ft 542 kts 60°
2026-04-08 08:28 52.68419 -67.26092 37209 ft 542 kts 60°
2026-04-08 08:29 52.71921 -67.15086 37161 ft 542 kts 60°
2026-04-08 08:29 52.75411 -67.04069 37121 ft 542 kts 61°
2026-04-08 08:30 52.78893 -66.93025 37085 ft 542 kts 61°
2026-04-08 08:30 52.82364 -66.81968 37063 ft 542 kts 61°
2026-04-08 08:31 52.85803 -66.70960 37067 ft 542 kts 61°
2026-04-08 08:31 52.89251 -66.59872 37097 ft 542 kts 61°
2026-04-08 08:32 52.92691 -66.48761 37131 ft 542 kts 61°
2026-04-08 08:32 52.96115 -66.37653 37169 ft 542 kts 62°
2026-04-08 08:33 52.99534 -66.26506 37202 ft 542 kts 62°
2026-04-08 08:33 53.02939 -66.15354 37204 ft 542 kts 62°
2026-04-08 08:34 53.06341 -66.04160 37202 ft 542 kts 62°
2026-04-08 08:34 53.09725 -65.92973 37198 ft 542 kts 62°
2026-04-08 08:35 53.13104 -65.81752 37202 ft 542 kts 62°
2026-04-08 08:35 53.16473 -65.70511 37197 ft 543 kts 62°
2026-04-08 08:36 53.19835 -65.59237 37195 ft 543 kts 62°
2026-04-08 08:36 53.23183 -65.47959 37192 ft 543 kts 63°
2026-04-08 08:37 53.26527 -65.36644 37190 ft 543 kts 63°
2026-04-08 08:37 53.29858 -65.25315 37187 ft 543 kts 63°
2026-04-08 08:38 53.33175 -65.13978 37189 ft 543 kts 63°
2026-04-08 08:38 53.36463 -65.02689 37187 ft 543 kts 63°
2026-04-08 08:39 53.39763 -64.91305 37184 ft 543 kts 63°
2026-04-08 08:39 53.43052 -64.79900 37181 ft 543 kts 63°
2026-04-08 08:40 53.46330 -64.68480 37179 ft 543 kts 64°
2026-04-08 08:40 53.49597 -64.57043 37146 ft 543 kts 64°
2026-04-08 08:41 53.52856 -64.45579 37112 ft 543 kts 64°
2026-04-08 08:41 53.56102 -64.34103 37077 ft 544 kts 64°
2026-04-08 08:42 53.59339 -64.22607 37055 ft 544 kts 64°
2026-04-08 08:42 53.62283 -64.10885 37055 ft 544 kts 69°
2026-04-08 08:43 53.64962 -63.98971 37064 ft 544 kts 69°
2026-04-08 08:43 53.67650 -63.87125 37094 ft 544 kts 69°
2026-04-08 08:44 53.70413 -63.75164 37132 ft 544 kts 68°
2026-04-08 08:44 53.73150 -63.63350 37164 ft 544 kts 69°
2026-04-08 08:45 53.75895 -63.51438 37186 ft 544 kts 69°
2026-04-08 08:45 53.78624 -63.39514 37189 ft 544 kts 69°
2026-04-08 08:46 53.81341 -63.27568 37189 ft 544 kts 69°
2026-04-08 08:46 53.84044 -63.15614 37189 ft 544 kts 69°
2026-04-08 08:47 53.86735 -63.03648 37193 ft 544 kts 69°
2026-04-08 08:47 53.89417 -62.91653 37188 ft 544 kts 69°
2026-04-08 08:48 53.92083 -62.79658 37190 ft 544 kts 70°
2026-04-08 08:48 53.94739 -62.67643 37190 ft 544 kts 70°
2026-04-08 08:49 53.97380 -62.55622 37188 ft 543 kts 70°
2026-04-08 08:49 54.00011 -62.43582 37186 ft 543 kts 70°
2026-04-08 08:50 54.02629 -62.31525 37179 ft 543 kts 70°
2026-04-08 08:50 54.05232 -62.19468 37180 ft 543 kts 70°
2026-04-08 08:51 54.07810 -62.07460 37176 ft 543 kts 70°
2026-04-08 08:51 54.10403 -61.95307 37174 ft 543 kts 70°
2026-04-08 08:52 54.12955 -61.83280 37175 ft 543 kts 71°
2026-04-08 08:52 54.15506 -61.71182 37172 ft 542 kts 71°
2026-04-08 08:53 54.18044 -61.59071 37170 ft 542 kts 71°
2026-04-08 08:53 54.20570 -61.46945 37171 ft 541 kts 71°
2026-04-08 08:54 54.23079 -61.34830 37165 ft 541 kts 71°
2026-04-08 08:54 54.25575 -61.22703 37164 ft 540 kts 71°
2026-04-08 08:55 54.28057 -61.10573 37163 ft 540 kts 71°
2026-04-08 08:55 54.30527 -60.98422 37157 ft 540 kts 71°
2026-04-08 08:56 54.32982 -60.86272 37149 ft 540 kts 71°
2026-04-08 08:56 54.35425 -60.74110 37147 ft 540 kts 72°
2026-04-08 08:57 54.37857 -60.61925 37145 ft 540 kts 72°
2026-04-08 08:57 54.40273 -60.49749 37137 ft 540 kts 72°
2026-04-08 08:58 54.42682 -60.37526 37135 ft 540 kts 72°
2026-04-08 08:58 54.45079 -60.25294 37135 ft 540 kts 72°
2026-04-08 08:59 54.47465 -60.13032 37131 ft 541 kts 72°
2026-04-08 08:59 54.49836 -60.00769 37129 ft 541 kts 72°
2026-04-08 09:00 54.52199 -59.88475 37127 ft 541 kts 73°
2026-04-08 09:00 54.54538 -59.76219 37127 ft 542 kts 73°
2026-04-08 09:01 54.58048 -59.57685 37130 ft 542 kts 73°
2026-04-08 09:02 54.60372 -59.45315 37125 ft 543 kts 73°
2026-04-08 09:02 54.62686 -59.32915 37123 ft 543 kts 73°
2026-04-08 09:03 54.64985 -59.20508 37121 ft 543 kts 73°
2026-04-08 09:03 54.67276 -59.08069 37118 ft 543 kts 73°
2026-04-08 09:04 54.69549 -58.95643 37118 ft 542 kts 73°
2026-04-08 09:04 54.71810 -58.83194 37121 ft 542 kts 74°
2026-04-08 09:05 54.73676 -58.72861 37119 ft 541 kts 74°
2026-04-08 09:05 54.75906 -58.60427 37120 ft 541 kts 74°
2026-04-08 09:06 54.78122 -58.47990 37120 ft 540 kts 74°
2026-04-08 09:06 54.80324 -58.35556 37114 ft 540 kts 74°
2026-04-08 09:07 54.82512 -58.23109 37108 ft 539 kts 74°
2026-04-08 09:07 54.84680 -58.10691 37112 ft 539 kts 75°
2026-04-08 09:08 54.86842 -57.98219 37113 ft 538 kts 75°
2026-04-08 09:08 54.88984 -57.85781 37096 ft 538 kts 75°
2026-04-08 09:09 54.91114 -57.73326 37103 ft 538 kts 75°
2026-04-08 09:09 54.93230 -57.60858 37103 ft 538 kts 75°
2026-04-08 09:10 54.95335 -57.48373 37093 ft 538 kts 75°
2026-04-08 09:10 54.97424 -57.35886 37099 ft 538 kts 75°
2026-04-08 09:11 54.99502 -57.23381 37096 ft 538 kts 75°
2026-04-08 09:11 55.01565 -57.10880 37091 ft 538 kts 76°
2026-04-08 09:12 55.03620 -56.98334 37098 ft 538 kts 76°
2026-04-08 09:12 55.05723 -56.85805 37092 ft 538 kts 75°
2026-04-08 09:13 55.07854 -56.73296 37085 ft 538 kts 75°
2026-04-08 09:13 55.09966 -56.60762 37082 ft 538 kts 75°
2026-04-08 09:14 55.12052 -56.48227 37084 ft 538 kts 75°
2026-04-08 09:14 55.14125 -56.35661 37082 ft 538 kts 76°
2026-04-08 09:15 55.16183 -56.23096 37074 ft 537 kts 76°
2026-04-08 09:15 55.18215 -56.10603 37073 ft 537 kts 76°
2026-04-08 09:16 55.20260 -55.97937 37070 ft 537 kts 76°
2026-04-08 09:16 55.22263 -55.85437 37068 ft 537 kts 76°
2026-04-08 09:17 55.24269 -55.72822 37066 ft 537 kts 76°
2026-04-08 09:17 55.26261 -55.60204 37068 ft 537 kts 76°
2026-04-08 09:18 55.28241 -55.47566 37061 ft 537 kts 77°
2026-04-08 09:18 55.30206 -55.34925 37062 ft 537 kts 77°
2026-04-08 09:19 55.32162 -55.22253 37058 ft 538 kts 77°
2026-04-08 09:19 55.34104 -55.09569 37053 ft 538 kts 77°
2026-04-08 09:20 55.36036 -54.96853 37049 ft 539 kts 77°
2026-04-08 09:20 55.37956 -54.84117 37042 ft 539 kts 77°
2026-04-08 09:21 55.39864 -54.71357 37040 ft 539 kts 77°
2026-04-08 09:21 55.41760 -54.58584 37030 ft 540 kts 78°
2026-04-08 09:22 55.43644 -54.45784 37037 ft 540 kts 78°
2026-04-08 09:22 55.45513 -54.32984 37020 ft 540 kts 78°
2026-04-08 09:23 55.47368 -54.20176 37021 ft 540 kts 78°
2026-04-08 09:23 55.49211 -54.07343 37013 ft 539 kts 78°
2026-04-08 09:24 55.51026 -53.94604 37006 ft 539 kts 78°
2026-04-08 09:24 55.52839 -53.81773 37008 ft 539 kts 78°
2026-04-08 09:25 55.54638 -53.68940 36999 ft 539 kts 78°
2026-04-08 09:25 55.56423 -53.56090 36991 ft 538 kts 78°
2026-04-08 09:26 55.58195 -53.43227 36990 ft 538 kts 78°
2026-04-08 09:26 55.59953 -53.30363 36986 ft 538 kts 79°
2026-04-08 09:27 55.61696 -53.17496 36979 ft 538 kts 79°
2026-04-08 09:27 55.63426 -53.04612 36976 ft 538 kts 79°
2026-04-08 09:28 55.65140 -52.91729 36972 ft 538 kts 79°
2026-04-08 09:28 55.66841 -52.78839 36968 ft 537 kts 79°
2026-04-08 09:29 55.68526 -52.65953 36964 ft 537 kts 79°
2026-04-08 09:29 55.70201 -52.53036 36961 ft 537 kts 79°
2026-04-08 09:30 55.71850 -52.40203 36960 ft 537 kts 79°
2026-04-08 09:30 55.73494 -52.27294 36953 ft 537 kts 80°
2026-04-08 09:31 55.75125 -52.14359 36947 ft 537 kts 80°
2026-04-08 09:31 55.76744 -52.01406 36946 ft 537 kts 80°
2026-04-08 09:32 55.78347 -51.88457 36937 ft 537 kts 80°
2026-04-08 09:32 55.79938 -51.75489 36935 ft 537 kts 80°
2026-04-08 09:33 55.81515 -51.62510 36932 ft 537 kts 80°
2026-04-08 09:33 55.83081 -51.49505 36925 ft 537 kts 80°
2026-04-08 09:34 55.84633 -51.36496 36923 ft 537 kts 81°
2026-04-08 09:34 55.86171 -51.23484 36920 ft 537 kts 81°
2026-04-08 09:35 55.87694 -51.10460 36924 ft 538 kts 81°
2026-04-08 09:35 55.89205 -50.97407 36910 ft 538 kts 81°
2026-04-08 09:36 55.90701 -50.84357 36910 ft 538 kts 81°
2026-04-08 09:36 55.92183 -50.71297 36905 ft 538 kts 81°
2026-04-08 09:37 55.93652 -50.58218 36909 ft 538 kts 81°
2026-04-08 09:37 55.95108 -50.45124 36904 ft 538 kts 81°
2026-04-08 09:38 55.96551 -50.32015 36894 ft 538 kts 81°
2026-04-08 09:38 55.97979 -50.18906 36890 ft 538 kts 82°
2026-04-08 09:39 55.99394 -50.05784 36883 ft 538 kts 82°
2026-04-08 09:39 56.00859 -49.92756 36884 ft 539 kts 79°
2026-04-08 09:40 56.02748 -49.79774 36878 ft 540 kts 77°
2026-04-08 09:40 56.04693 -49.66815 36876 ft 540 kts 77°
2026-04-08 09:41 56.06561 -49.53811 36872 ft 539 kts 78°
2026-04-08 09:41 56.08375 -49.40784 36865 ft 539 kts 78°
2026-04-08 09:42 56.10165 -49.27744 36860 ft 539 kts 78°
2026-04-08 09:42 56.11945 -49.14686 36854 ft 539 kts 78°
2026-04-08 09:43 56.13712 -49.01636 36853 ft 539 kts 78°
2026-04-08 09:43 56.15465 -48.88578 36847 ft 539 kts 79°
2026-04-08 09:44 56.17207 -48.75492 36845 ft 539 kts 79°
2026-04-08 09:44 56.18930 -48.62422 36840 ft 539 kts 79°
2026-04-08 09:45 56.20642 -48.49314 36835 ft 538 kts 79°
2026-04-08 09:45 56.22337 -48.36227 36831 ft 538 kts 79°
2026-04-08 09:46 56.24019 -48.23123 36828 ft 538 kts 79°
2026-04-08 09:46 56.25689 -48.10015 36819 ft 538 kts 79°
2026-04-08 09:47 56.27343 -47.96878 36816 ft 538 kts 79°
2026-04-08 09:47 56.28981 -47.83756 36815 ft 538 kts 79°
2026-04-08 09:48 56.30606 -47.70609 36808 ft 538 kts 80°
2026-04-08 09:48 56.32217 -47.57461 36801 ft 538 kts 80°
2026-04-08 09:49 56.33813 -47.44297 36797 ft 538 kts 80°
2026-04-08 09:49 56.35398 -47.31124 36794 ft 538 kts 80°
2026-04-08 09:50 56.36969 -47.17929 36791 ft 538 kts 80°
2026-04-08 09:50 56.38524 -47.04741 36779 ft 538 kts 81°
2026-04-08 09:51 56.40064 -46.91543 36787 ft 538 kts 81°
2026-04-08 09:51 56.41335 -46.80547 36771 ft 538 kts 81°
2026-04-08 09:52 56.42850 -46.67331 36775 ft 538 kts 81°
2026-04-08 09:52 56.44594 -46.51933 36771 ft 538 kts 81°
2026-04-08 09:53 56.45839 -46.40833 36771 ft 538 kts 81°
2026-04-08 09:53 56.47315 -46.27575 36765 ft 538 kts 81°
2026-04-08 09:54 56.48774 -46.14320 36756 ft 538 kts 81°
2026-04-08 09:54 56.50221 -46.01030 36748 ft 538 kts 81°
2026-04-08 09:55 56.51650 -45.87755 36750 ft 538 kts 81°
2026-04-08 09:55 56.53067 -45.74445 36746 ft 537 kts 82°
2026-04-08 09:56 56.54466 -45.61159 36739 ft 538 kts 82°
2026-04-08 09:56 56.55854 -45.47847 36735 ft 538 kts 82°
2026-04-08 09:57 56.57234 -45.34508 36732 ft 538 kts 82°
2026-04-08 09:57 56.58594 -45.21170 36728 ft 538 kts 82°
2026-04-08 09:58 56.59936 -45.07822 36719 ft 538 kts 82°
2026-04-08 09:58 56.61270 -44.94443 36716 ft 538 kts 82°
2026-04-08 09:59 56.62586 -44.81065 36711 ft 538 kts 82°
2026-04-08 09:59 56.63891 -44.67676 36709 ft 538 kts 82°
2026-04-08 10:00 56.65173 -44.54367 36706 ft 538 kts 83°
2026-04-08 10:00 56.66446 -44.40962 36699 ft 538 kts 83°
2026-04-08 10:01 56.68334 -44.20814 36692 ft 539 kts 83°
2026-04-08 10:01 56.69574 -44.07384 36695 ft 538 kts 83°
2026-04-08 10:02 56.70799 -43.93940 36687 ft 539 kts 83°
2026-04-08 10:02 56.72012 -43.80479 36680 ft 539 kts 83°
2026-04-08 10:03 56.73209 -43.67011 36676 ft 539 kts 84°
2026-04-08 10:03 56.74391 -43.53516 36665 ft 539 kts 84°
2026-04-08 10:04 56.75559 -43.40033 36661 ft 539 kts 84°
2026-04-08 10:04 56.76713 -43.26520 36657 ft 540 kts 84°
2026-04-08 10:05 56.77854 -43.12993 36643 ft 540 kts 84°
2026-04-08 10:05 56.78984 -42.99458 36636 ft 540 kts 84°
2026-04-08 10:06 56.80089 -42.85990 36623 ft 540 kts 84°
2026-04-08 10:06 56.81186 -42.72435 36627 ft 540 kts 84°
2026-04-08 10:07 56.82268 -42.58862 36618 ft 540 kts 84°
2026-04-08 10:07 56.83338 -42.45287 36611 ft 541 kts 84°
2026-04-08 10:08 56.84394 -42.31692 36603 ft 541 kts 85°
2026-04-08 10:08 56.85434 -42.18070 36598 ft 541 kts 85°
2026-04-08 10:09 56.86458 -42.04437 36591 ft 541 kts 85°
2026-04-08 10:09 56.87466 -41.90806 36587 ft 541 kts 85°
2026-04-08 10:10 56.88463 -41.77177 36580 ft 541 kts 85°
2026-04-08 10:10 56.89441 -41.63557 36573 ft 540 kts 85°
2026-04-08 10:11 56.90405 -41.49936 36562 ft 539 kts 85°
2026-04-08 10:11 56.91352 -41.36344 36554 ft 538 kts 85°
2026-04-08 10:12 56.92284 -41.22763 36542 ft 538 kts 85°
2026-04-08 10:12 56.93199 -41.09185 36553 ft 537 kts 85°
2026-04-08 10:13 56.94099 -40.95625 36541 ft 536 kts 85°
2026-04-08 10:13 56.94983 -40.82075 36533 ft 535 kts 85°
2026-04-08 10:14 56.95850 -40.68549 36528 ft 535 kts 85°
2026-04-08 10:14 56.96702 -40.55012 36518 ft 534 kts 86°
2026-04-08 10:15 56.97539 -40.41477 36514 ft 535 kts 86°
2026-04-08 10:15 56.98362 -40.27926 36507 ft 535 kts 86°
2026-04-08 10:16 56.99171 -40.14379 36505 ft 535 kts 86°
2026-04-08 10:16 56.99966 -40.00799 36496 ft 535 kts 86°
2026-04-08 10:17 57.00626 -39.87220 36494 ft 534 kts 89°
2026-04-08 10:17 57.01091 -39.73625 36490 ft 534 kts 89°
2026-04-08 10:18 57.01552 -39.60009 36485 ft 534 kts 89°
2026-04-08 10:18 57.02033 -39.46397 36476 ft 535 kts 89°
2026-04-08 10:19 57.02512 -39.32799 36474 ft 535 kts 89°
2026-04-08 10:19 57.02978 -39.19167 36464 ft 535 kts 89°
2026-04-08 10:20 57.03427 -39.05542 36456 ft 535 kts 89°
2026-04-08 10:20 57.03861 -38.91910 36457 ft 535 kts 89°
2026-04-08 10:21 57.04277 -38.78358 36450 ft 535 kts 89°
2026-04-08 10:21 57.04684 -38.64627 36447 ft 535 kts 89°
2026-04-08 10:22 57.05071 -38.51062 36436 ft 535 kts 90°
2026-04-08 10:22 57.05446 -38.37397 36432 ft 535 kts 90°
2026-04-08 10:23 57.05806 -38.23741 36424 ft 536 kts 90°
2026-04-08 10:23 57.06152 -38.10080 36417 ft 536 kts 90°
2026-04-08 10:24 57.06482 -37.96397 36405 ft 536 kts 90°
2026-04-08 10:24 57.06798 -37.82714 36401 ft 536 kts 90°
2026-04-08 10:25 57.07099 -37.69028 36398 ft 536 kts 90°
2026-04-08 10:25 57.07385 -37.55332 36395 ft 536 kts 90°
2026-04-08 10:26 57.07656 -37.41645 36386 ft 536 kts 91°
2026-04-08 10:26 57.07912 -37.27937 36383 ft 537 kts 91°
2026-04-08 10:27 57.08154 -37.14218 36376 ft 537 kts 91°
2026-04-08 10:27 57.08381 -37.00487 36377 ft 537 kts 91°
2026-04-08 10:28 57.08592 -36.86763 36364 ft 538 kts 91°
2026-04-08 10:28 57.08789 -36.73011 36362 ft 538 kts 91°
2026-04-08 10:29 57.08971 -36.59262 36365 ft 538 kts 91°
2026-04-08 10:29 57.09138 -36.45494 36352 ft 539 kts 91°
2026-04-08 10:30 57.09290 -36.31710 36348 ft 539 kts 92°
2026-04-08 10:30 57.09427 -36.17930 36350 ft 540 kts 92°
2026-04-08 10:31 57.09549 -36.04136 36349 ft 540 kts 92°
2026-04-08 10:31 57.09656 -35.90319 36343 ft 540 kts 92°
2026-04-08 10:32 57.09748 -35.76489 36343 ft 541 kts 92°
2026-04-08 10:32 57.09824 -35.62667 36339 ft 541 kts 92°
2026-04-08 10:33 57.09886 -35.48807 36334 ft 541 kts 92°
2026-04-08 10:33 57.09932 -35.34964 36335 ft 542 kts 92°
2026-04-08 10:34 57.09962 -35.21205 36332 ft 542 kts 92°
2026-04-08 10:34 57.09978 -35.07346 36330 ft 542 kts 92°
2026-04-08 10:35 57.09979 -34.93473 36330 ft 543 kts 93°
2026-04-08 10:35 57.09964 -34.79591 36330 ft 543 kts 93°
2026-04-08 10:36 57.09934 -34.65699 36330 ft 543 kts 93°
2026-04-08 10:36 57.09888 -34.51814 36327 ft 543 kts 93°
2026-04-08 10:37 57.09859 -34.44864 36530 ft 543 kts 93°
2026-04-08 10:37 57.09827 -34.37921 36356 ft 541 kts 93°
2026-04-08 10:37 57.09765 -34.26337 36325 ft 540 kts 93°
2026-04-08 10:38 57.09676 -34.12533 36325 ft 540 kts 94°
2026-04-08 10:38 57.09572 -33.98724 36331 ft 540 kts 94°
2026-04-08 10:39 57.09454 -33.84998 36335 ft 540 kts 94°
2026-04-08 10:39 57.09319 -33.71107 36324 ft 540 kts 94°
2026-04-08 10:40 57.09170 -33.57407 36328 ft 540 kts 94°
2026-04-08 10:40 57.09006 -33.43608 36328 ft 540 kts 94°
2026-04-08 10:41 57.08827 -33.29802 36330 ft 540 kts 94°
2026-04-08 10:41 57.08632 -33.16015 36327 ft 540 kts 94°
2026-04-08 10:42 57.08422 -33.02210 36326 ft 540 kts 94°
2026-04-08 10:42 57.08197 -32.88424 36327 ft 540 kts 94°
2026-04-08 10:43 57.07957 -32.74637 36330 ft 540 kts 95°
2026-04-08 10:43 57.07703 -32.60869 36329 ft 540 kts 95°
2026-04-08 10:44 57.07432 -32.47075 36330 ft 540 kts 95°
2026-04-08 10:44 57.07147 -32.33281 36335 ft 539 kts 95°
2026-04-08 10:45 57.06848 -32.19604 36331 ft 539 kts 95°
2026-04-08 10:45 57.06533 -32.05827 36330 ft 539 kts 95°
2026-04-08 10:46 57.06203 -31.92060 36341 ft 539 kts 95°
2026-04-08 10:46 57.05857 -31.78288 36334 ft 539 kts 95°
2026-04-08 10:47 57.05496 -31.64528 36336 ft 540 kts 96°
2026-04-08 10:47 57.05120 -31.50757 36337 ft 540 kts 96°
2026-04-08 10:48 57.04730 -31.37009 36334 ft 540 kts 96°
2026-04-08 10:48 57.04323 -31.23240 36335 ft 540 kts 96°
2026-04-08 10:49 57.03902 -31.09483 36333 ft 539 kts 96°
2026-04-08 10:49 57.03466 -30.95732 36338 ft 540 kts 96°
2026-04-08 10:50 57.03015 -30.81969 36343 ft 540 kts 96°
2026-04-08 10:50 57.02548 -30.68223 36347 ft 540 kts 96°
2026-04-08 10:51 57.02067 -30.54484 36352 ft 540 kts 97°
2026-04-08 10:51 57.01571 -30.40755 36349 ft 540 kts 97°
2026-04-08 10:52 57.01059 -30.27011 36349 ft 540 kts 97°
2026-04-08 10:52 57.00533 -30.13272 36352 ft 540 kts 97°
2026-04-08 10:53 56.99991 -29.99517 36354 ft 540 kts 97°
2026-04-08 10:53 56.99293 -29.85892 36362 ft 540 kts 100°
2026-04-08 10:54 56.98412 -29.72142 36364 ft 540 kts 100°
2026-04-08 10:54 56.97537 -29.58472 36369 ft 540 kts 100°
2026-04-08 10:55 56.96688 -29.44882 36374 ft 540 kts 100°
2026-04-08 10:55 56.95830 -29.31209 36381 ft 541 kts 100°
2026-04-08 10:56 56.94952 -29.17498 36384 ft 541 kts 100°
2026-04-08 10:56 56.94059 -29.03823 36388 ft 541 kts 101°
2026-04-08 10:57 56.93152 -28.90159 36392 ft 541 kts 101°
2026-04-08 10:57 56.92231 -28.76480 36397 ft 541 kts 101°
2026-04-08 10:58 56.91292 -28.62818 36404 ft 541 kts 101°
2026-04-08 10:58 56.90339 -28.49154 36405 ft 541 kts 101°
2026-04-08 10:59 56.89372 -28.35490 36416 ft 541 kts 102°
2026-04-08 10:59 56.88389 -28.21852 36421 ft 541 kts 101°
2026-04-08 11:00 56.87393 -28.08220 36432 ft 541 kts 102°
2026-04-08 11:00 56.86380 -27.94570 36438 ft 541 kts 102°
2026-04-08 11:01 56.85355 -27.80958 36446 ft 541 kts 102°
2026-04-08 11:01 56.84314 -27.67351 36449 ft 541 kts 102°
2026-04-08 11:02 56.83255 -27.53738 36455 ft 541 kts 102°
2026-04-08 11:02 56.82186 -27.40154 36462 ft 541 kts 103°
2026-04-08 11:03 56.80554 -27.19794 36471 ft 540 kts 103°
2026-04-08 11:04 56.79455 -27.06332 36478 ft 540 kts 103°
2026-04-08 11:04 56.78336 -26.92805 36483 ft 540 kts 103°
2026-04-08 11:05 56.77203 -26.79269 36488 ft 540 kts 103°
2026-04-08 11:05 56.76053 -26.65750 36506 ft 539 kts 103°
2026-04-08 11:06 56.74890 -26.52258 36510 ft 539 kts 103°
2026-04-08 11:06 56.73715 -26.38774 36515 ft 539 kts 103°
2026-04-08 11:07 56.72524 -26.25299 36521 ft 539 kts 104°
2026-04-08 11:07 56.71319 -26.11843 36524 ft 538 kts 104°
2026-04-08 11:08 56.70100 -25.98412 36534 ft 538 kts 104°
2026-04-08 11:08 56.68869 -25.84999 36541 ft 538 kts 104°
2026-04-08 11:09 56.67625 -25.71604 36546 ft 537 kts 104°
2026-04-08 11:09 56.66364 -25.58201 36552 ft 537 kts 104°
2026-04-08 11:10 56.65092 -25.44828 36558 ft 537 kts 104°
2026-04-08 11:10 56.63806 -25.31477 36567 ft 536 kts 104°
2026-04-08 11:11 56.62504 -25.18129 36575 ft 536 kts 104°
2026-04-08 11:11 56.61199 -25.04898 36577 ft 536 kts 105°
2026-04-08 11:12 56.59873 -24.91605 36585 ft 536 kts 105°
2026-04-08 11:12 56.58533 -24.78311 36593 ft 535 kts 105°
2026-04-08 11:13 56.57178 -24.65029 36595 ft 535 kts 105°
2026-04-08 11:13 56.55810 -24.51765 36598 ft 535 kts 105°
2026-04-08 11:14 56.54427 -24.38504 36607 ft 535 kts 105°
2026-04-08 11:14 56.53030 -24.25252 36615 ft 535 kts 105°
2026-04-08 11:15 56.51620 -24.12026 36627 ft 535 kts 106°
2026-04-08 11:15 56.50197 -23.98815 36628 ft 535 kts 106°
2026-04-08 11:16 56.48759 -23.85606 36635 ft 534 kts 106°
2026-04-08 11:16 56.47309 -23.72421 36639 ft 534 kts 106°
2026-04-08 11:17 56.45845 -23.59250 36645 ft 534 kts 106°
2026-04-08 11:17 56.44367 -23.46087 36650 ft 534 kts 107°
2026-04-08 11:18 56.42887 -23.33042 36657 ft 534 kts 107°
2026-04-08 11:18 56.41384 -23.19916 36661 ft 534 kts 107°
2026-04-08 11:19 56.39867 -23.06806 36670 ft 533 kts 107°
2026-04-08 11:19 56.38336 -22.93703 36674 ft 533 kts 107°
2026-04-08 11:20 56.36792 -22.80619 36681 ft 533 kts 107°
2026-04-08 11:20 56.35237 -22.67572 36682 ft 533 kts 107°
2026-04-08 11:21 56.33666 -22.54515 36686 ft 532 kts 108°
2026-04-08 11:21 56.32084 -22.41487 36692 ft 532 kts 108°
2026-04-08 11:22 56.30487 -22.28461 36700 ft 532 kts 108°
2026-04-08 11:22 56.28880 -22.15477 36702 ft 532 kts 108°
2026-04-08 11:23 56.27256 -22.02478 36709 ft 532 kts 108°
2026-04-08 11:23 56.25622 -21.89514 36714 ft 532 kts 108°
2026-04-08 11:24 56.23973 -21.76555 36722 ft 531 kts 108°
2026-04-08 11:24 56.22312 -21.63617 36726 ft 531 kts 109°
2026-04-08 11:25 56.20638 -21.50686 36731 ft 531 kts 109°
2026-04-08 11:25 56.19238 -21.39966 36734 ft 531 kts 109°
2026-04-08 11:26 56.17539 -21.27060 36741 ft 531 kts 109°
2026-04-08 11:26 56.15827 -21.14174 36749 ft 531 kts 109°
2026-04-08 11:27 56.14100 -21.01282 36752 ft 531 kts 109°
2026-04-08 11:27 56.12363 -20.88420 36755 ft 531 kts 109°
2026-04-08 11:28 56.10611 -20.75568 36762 ft 531 kts 110°
2026-04-08 11:28 56.08845 -20.62717 36765 ft 531 kts 110°
2026-04-08 11:29 56.07068 -20.49895 36771 ft 531 kts 110°
2026-04-08 11:29 56.05277 -20.37082 36774 ft 531 kts 110°
2026-04-08 11:30 56.03484 -20.24359 36781 ft 531 kts 110°
2026-04-08 11:30 56.01665 -20.11562 36787 ft 531 kts 110°
2026-04-08 11:31 55.99836 -19.98790 36794 ft 531 kts 111°
2026-04-08 11:31 55.97940 -19.86064 36797 ft 530 kts 111°
2026-04-08 11:32 55.95983 -19.73381 36801 ft 530 kts 112°
2026-04-08 11:32 55.94021 -19.60712 36807 ft 530 kts 112°
2026-04-08 11:33 55.92054 -19.48038 36816 ft 530 kts 112°
2026-04-08 11:33 55.90080 -19.35384 36814 ft 530 kts 112°
2026-04-08 11:34 55.88089 -19.22720 36821 ft 531 kts 112°
2026-04-08 11:34 55.86084 -19.10077 36824 ft 531 kts 112°
2026-04-08 11:35 55.84066 -18.97433 36830 ft 531 kts 112°
2026-04-08 11:35 55.82035 -18.84794 36829 ft 532 kts 112°
2026-04-08 11:36 55.79988 -18.72155 36837 ft 532 kts 113°
2026-04-08 11:36 55.77926 -18.59524 36842 ft 532 kts 113°
2026-04-08 11:37 55.75852 -18.46909 36847 ft 533 kts 113°
2026-04-08 11:37 55.73761 -18.34285 36851 ft 533 kts 113°
2026-04-08 11:38 55.71657 -18.21673 36855 ft 533 kts 114°
2026-04-08 11:38 55.69538 -18.09061 36858 ft 534 kts 114°
2026-04-08 11:39 55.67405 -17.96458 36859 ft 534 kts 114°
2026-04-08 11:39 55.65259 -17.83864 36867 ft 534 kts 114°
2026-04-08 11:40 55.63096 -17.71269 36867 ft 535 kts 114°
2026-04-08 11:40 55.60921 -17.58687 36874 ft 535 kts 114°
2026-04-08 11:41 55.58747 -17.46195 36876 ft 535 kts 114°
2026-04-08 11:41 55.56556 -17.33693 36883 ft 534 kts 115°
2026-04-08 11:42 55.54348 -17.21182 36888 ft 534 kts 115°
2026-04-08 11:42 55.52125 -17.08679 36899 ft 533 kts 115°
2026-04-08 11:43 55.49895 -16.96215 36895 ft 533 kts 115°
2026-04-08 11:43 55.47655 -16.83780 36903 ft 532 kts 115°
2026-04-08 11:44 55.45402 -16.71359 36908 ft 531 kts 115°
2026-04-08 11:44 55.43140 -16.58973 36913 ft 531 kts 115°
2026-04-08 11:45 55.40873 -16.46645 36915 ft 530 kts 116°
2026-04-08 11:45 55.38594 -16.34327 36919 ft 529 kts 116°
2026-04-08 11:46 55.36307 -16.22050 36922 ft 528 kts 116°
2026-04-08 11:46 55.34010 -16.09798 36925 ft 527 kts 116°
2026-04-08 11:47 55.31706 -15.97590 36930 ft 526 kts 116°
2026-04-08 11:47 55.29407 -15.85484 36930 ft 525 kts 116°
2026-04-08 11:48 55.27088 -15.73353 36932 ft 524 kts 116°
2026-04-08 11:48 55.24761 -15.61253 36937 ft 523 kts 116°
2026-04-08 11:49 55.22429 -15.49202 36936 ft 522 kts 116°
2026-04-08 11:49 55.20086 -15.37170 36947 ft 521 kts 116°
2026-04-08 11:50 55.17735 -15.25177 36943 ft 520 kts 116°
2026-04-08 11:50 55.15377 -15.13221 36951 ft 520 kts 117°
2026-04-08 11:51 55.13010 -15.01293 36953 ft 519 kts 117°
2026-04-08 11:51 55.10637 -14.89404 36956 ft 518 kts 117°
2026-04-08 11:52 55.08254 -14.77541 36959 ft 517 kts 117°
2026-04-08 11:52 55.05864 -14.65709 36967 ft 517 kts 117°
2026-04-08 11:53 55.03466 -14.53912 36970 ft 516 kts 117°
2026-04-08 11:53 55.01060 -14.42147 36980 ft 515 kts 117°
2026-04-08 11:54 54.98641 -14.30384 36989 ft 515 kts 117°
2026-04-08 11:54 54.96230 -14.18732 36991 ft 514 kts 117°
2026-04-08 11:55 54.93782 -14.06965 36997 ft 514 kts 117°
2026-04-08 11:55 54.91340 -13.95301 37007 ft 513 kts 117°
2026-04-08 11:56 54.88892 -13.83673 37016 ft 513 kts 117°
2026-04-08 11:56 54.86445 -13.72114 37021 ft 513 kts 117°
2026-04-08 11:57 54.83973 -13.60505 37025 ft 512 kts 117°
2026-04-08 11:57 54.81495 -13.48933 37038 ft 512 kts 117°
2026-04-08 11:58 54.79005 -13.37368 37044 ft 512 kts 117°
2026-04-08 11:58 54.76506 -13.25830 37055 ft 511 kts 117°
2026-04-08 11:59 54.73998 -13.14316 37061 ft 511 kts 117°
2026-04-08 11:59 54.71482 -13.02827 37068 ft 510 kts 117°
2026-04-08 12:00 54.68957 -12.91361 37074 ft 510 kts 117°
2026-04-08 12:00 54.66426 -12.79933 37082 ft 509 kts 117°
2026-04-08 12:01 54.63887 -12.68530 37102 ft 508 kts 117°
2026-04-08 12:01 54.61343 -12.57163 37099 ft 508 kts 117°
2026-04-08 12:02 54.58785 -12.45799 37104 ft 507 kts 117°